Dewpoint
39 41 40 42 41 42 43 42 43 43 43 43 44 45 45 44 44 44 39 43 41 41 42 42 42 41 42 42 43 44 45 45 44 45 45 46 45 46 44 44 45 45 44 43 43 43 43 43 43 42 42 41 41 40 39 39 38 38 37 37 36 34 34 35 35 34 29 26 25 26 25 23 22 22 22 23 24 27 27 25 27 26 26 26 26
40 40 40 41 41 42 41 39 42 41 42 42 43 44 43 43 42 38 41 42 39 41 41 41 40 40 41 42 42 43 44 45 44 44 44 44 43 44 44 42 42 43 42 42 41 41 41 42 42 41 40 40 40 39 39 38 37 37 36 36 36 35 33 34 35 34 27 21 24 24 23 24 22 23 22 23 23 25 25 26 26 26 25 25 25
39 38 39 39 40 40 39 40 40 38 40 41 41 42 41 40 38 40 41 40 37 39 40 39 40 40 41 41 42 42 42 43 42 42 43 43 43 42 43 42 42 42 42 42 42 40 40 40 41 41 40 39 39 39 38 37 37 36 36 35 35 35 34 34 34 31 27 23 22 21 22 23 22 23 23 24 24 24 24 25 26 27 28 27 27
37 37 38 38 38 38 39 39 37 38 38 41 40 40 40 39 38 39 40 39 40 39 38 39 39 39 40 40 40 40 40 40 40 41 42 42 42 42 41 41 41 42 42 42 42 40 40 40 40 40 39 39 39 38 37 37 36 36 36 35 34 35 33 32 33 28 22 21 22 21 23 22 23 24 25 24 24 24 24 26 27 27 27 28 27
37 37 36 38 37 37 38 37 37 38 38 39 39 39 38 38 37 39 38 39 39 38 38 38 39 39 40 40 40 40 40 39 40 39 39 39 41 41 41 41 41 41 41 42 40 41 40 40 40 40 39 38 38 37 36 35 36 36 35 35 34 34 32 31 30 29 24 23 22 22 22 22 24 24 24 23 25 25 26 27 27 27 27 26 26
36 37 37 37 38 37 38 37 37 38 38 38 39 38 38 37 38 38 38 39 38 38 39 38 38 39 39 39 39 40 39 39 39 39 39 38 39 40 40 40 40 40 40 41 41 40 40 40 40 39 38 38 38 36 35 34 34 34 34 34 33 31 30 28 25 27 25 24 23 22 22 21 21 23 24 24 24 26 26 26 25 25 25 23 23
36 36 37 36 37 38 38 38 39 38 38 38 38 37 38 37 37 38 37 38 38 39 38 38 38 38 39 39 39 39 39 38 38 38 38 38 39 39 39 40 40 40 40 40 40 40 40 39 39 38 38 37 37 36 34 33 33 33 34 32 30 28 26 23 23 25 25 24 24 23 21 21 21 23 25 27 27 27 26 24 24 24 22 21 20
35 35 35 36 37 38 39 38 38 38 38 37 37 37 37 37 37 37 35 37 37 38 38 38 38 37 38 39 39 38 38 38 38 38 38 38 38 38 38 38 39 39 39 39 39 39 39 39 38 38 37 37 37 36 34 33 33 32 32 28 27 25 24 24 25 26 26 25 23 21 21 23 25 25 25 26 25 24 25 24 24 23 21 19 18
34 34 34 35 37 38 38 38 38 37 37 37 37 37 37 36 36 36 35 36 37 37 38 38 37 37 37 37 38 37 38 39 39 38 38 37 37 37 38 38 38 38 38 38 38 38 38 38 37 37 36 35 35 35 34 33 31 30 28 27 26 26 26 26 27 27 26 25 23 23 23 26 26 25 25 25 26 26 24 23 23 22 20 19 19
34 34 34 35 36 36 37 36 37 37 36 37 37 37 36 36 35 35 35 36 36 36 36 36 37 37 38 37 37 37 38 38 37 38 39 38 37 37 38 38 38 38 37 37 37 37 37 37 37 35 34 33 33 34 34 33 32 30 27 26 27 27 26 26 26 26 25 24 24 25 23 24 25 26 26 25 26 25 22 21 21 20 19 19 20
35 34 35 35 35 35 35 35 35 35 36 36 36 36 36 35 35 35 35 35 35 35 35 35 36 36 37 37 37 37 37 37 37 39 40 40 37 36 37 37 37 37 37 37 37 36 36 36 36 34 33 33 32 33 33 33 32 31 29 28 28 27 28 28 27 28 26 26 27 26 25 25 26 26 26 26 26 24 22 21 21 20 21 19 19
35 35 36 36 35 34 35 34 34 35 34 35 35 35 35 34 35 35 35 35 35 34 34 35 36 36 36 36 36 37 36 37 38 39 39 40 39 37 37 37 37 37 36 36 36 36 35 34 34 33 33 33 32 32 32 32 32 31 30 29 30 30 31 29 29 30 30 29 28 28 28 27 26 26 26 26 25 24 23 21 21 21 20 20 20
34 34 35 35 35 35 35 34 34 34 34 34 34 34 34 34 34 34 35 35 34 34 35 35 35 35 35 35 35 35 35 37 38 38 38 39 39 38 37 35 35 36 36 36 35 35 34 33 32 31 31 32 32 32 31 31 31 30 30 32 32 33 34 35 33 32 32 30 29 28 29 28 26 26 27 26 25 23 22 22 21 20 20 20 20
33 34 34 34 34 34 34 34 34 34 34 34 34 34 34 34 34 34 34 34 34 34 34 34 34 34 34 34 35 35 34 35 37 37 37 38 38 38 36 35 35 35 35 35 35 34 33 32 31 30 31 31 31 31 31 30 30 31 32 32 32 33 34 34 33 32 32 31 30 29 29 29 27 27 27 27 24 23 22 22 21 21 21 21 22
33 33 33 33 34 34 34 33 33 33 33 33 33 33 34 34 34 34 34 34 34 34 35 34 34 34 33 33 34 34 34 35 36 37 37 37 37 38 35 34 34 33 34 34 34 33 32 31 31 31 30 31 31 31 30 30 30 31 31 31 31 31 31 31 31 31 31 30 31 30 29 29 28 27 27 26 25 25 24 24 23 23 23 22 20
32 32 32 33 33 33 33 33 33 33 33 33 33 33 33 34 34 34 33 34 33 33 33 33 33 33 33 33 33 33 33 35 36 36 36 37 37 35 34 33 33 33 32 32 31 31 31 31 30 30 30 30 30 31 31 31 31 31 30 30 29 29 30 31 32 31 30 30 29 29 29 29 29 27 27 27 26 26 26 23 22 21 20 18 17
31 31 32 32 32 32 32 32 32 32 32 32 33 33 33 33 33 32 32 33 33 32 33 33 33 33 32 31 32 32 32 33 35 36 36 37 37 34 33 33 32 32 32 31 30 29 29 29 29 29 29 29 30 31 31 32 31 30 29 29 29 29 29 31 33 33 33 32 32 32 33 33 32 31 30 30 27 26 24 22 21 21 20 19 19
31 31 31 31 32 31 31 31 31 31 32 32 32 33 33 32 32 31 32 33 32 32 32 32 31 31 31 31 31 31 31 32 34 35 35 36 35 33 33 32 32 31 30 29 27 27 27 28 28 28 28 28 30 32 33 32 30 30 29 28 27 27 28 30 31 31 33 32 32 32 31 31 31 30 30 30 29 28 23 22 21 21 20 20 17
30 30 30 31 31 31 31 30 30 30 31 32 32 32 33 32 32 28 30 31 32 30 29 29 29 28 28 30 30 30 30 30 33 34 35 36 35 33 32 31 30 29 28 27 27 26 27 28 28 28 28 29 31 33 33 31 30 30 29 28 27 26 27 28 28 29 29 29 29 29 29 28 27 27 28 30 29 27 24 23 22 21 18 17 17
30 30 30 30 30 30 30 29 29 29 30 30 31 31 31 29 29 29 28 28 29 27 26 27 27 28 26 26 28 28 28 28 31 33 34 35 36 33 31 30 29 28 28 26 25 26 27 28 28 29 29 31 33 33 33 33 30 30 30 29 27 26 27 28 28 28 27 27 27 26 24 23 22 21 20 21 22 22 21 20 20 18 16 14 13
29 29 29 29 29 29 29 28 28 28 28 29 29 28 27 28 28 25 27 25 24 24 24 25 25 25 24 24 24 25 28 29 30 33 34 34 35 33 31 30 30 28 26 25 25 25 26 27 28 30 31 32 33 33 34 33 32 30 31 30 29 28 28 27 27 28 26 25 24 23 22 21 20 20 19 19 18 18 19 19 16 15 15 12 10
29 28 28 28 28 28 27 26 25 25 26 25 26 27 24 21 23 24 24 22 24 24 22 23 24 23 22 22 23 26 28 30 30 32 33 34 35 34 31 30 29 27 24 24 24 25 26 27 28 31 32 33 33 34 34 34 33 31 31 32 32 31 27 27 26 25 25 24 23 22 20 19 18 17 17 16 15 14 13 14 15 12 10 10 10
27 27 27 27 27 26 25 24 24 24 24 23 23 25 22 20 20 20 21 22 22 23 22 22 21 22 21 22 23 25 27 29 30 30 32 34 34 34 32 30 30 26 25 24 24 25 27 28 29 31 32 33 34 34 34 34 32 31 33 33 32 30 28 26 25 24 24 23 22 19 19 18 16 15 14 12 11 10 10 9 8 8 8 9 8
26 25 25 25 26 25 24 23 22 22 21 22 21 22 21 19 19 21 21 22 22 22 21 21 21 21 22 22 23 25 27 27 29 30 31 33 33 33 32 30 29 26 26 25 25 25 27 28 30 32 32 34 34 34 34 33 31 33 33 32 31 28 25 25 24 24 23 22 20 19 17 17 15 12 11 10 8 6 5 4 3 3 5 5 5
24 24 24 24 24 23 22 22 21 20 20 18 21 22 20 17 20 19 20 21 21 22 21 21 22 22 22 23 24 25 27 28 28 30 31 32 33 33 31 30 29 28 25 25 25 25 27 30 32 33 34 34 33 34 33 32 33 33 32 31 28 25 24 24 23 22 21 20 19 19 17 15 13 11 10 8 5 4 2 1 -1 -2 -0 2 1
23 24 24 23 23 21 20 22 20 19 18 17 19 19 20 20 21 20 18 20 20 21 21 21 21 23 23 23 24 24 27 28 28 30 31 32 32 32 31 30 28 27 26 25 26 27 29 31 32 33 33 33 33 31 30 32 32 32 31 28 25 24 24 23 22 21 20 19 18 17 14 11 9 8 7 6 5 2 -0 -4 -3 -4 -3 -3 -5
22 23 23 23 22 19 20 22 22 20 17 17 16 17 18 19 19 21 21 22 23 23 23 24 24 23 23 23 24 26 27 27 28 29 30 31 31 31 30 29 29 27 26 26 27 28 30 31 33 33 33 32 31 30 31 31 31 30 27 24 23 23 22 22 21 20 18 17 15 12 9 7 5 5 4 4 1 -0 0 -2 -6 -7 -7 -8 -6
23 23 23 22 21 20 20 22 22 21 18 17 17 17 17 17 19 22 24 24 25 25 24 24 24 23 23 23 25 26 26 27 28 29 29 29 29 29 28 27 26 25 26 27 28 29 31 32 33 32 31 30 29 28 27 25 24 22 21 20 20 19 20 21 19 16 15 13 10 7 4 3 2 1 -1 -1 0 -1 -2 -5 -6 -6 -6 -10 -11
22 22 22 21 21 20 20 20 19 19 18 17 16 18 19 20 21 22 23 24 25 25 24 24 24 24 24 24 25 25 26 27 28 29 29 29 28 27 26 26 26 26 28 29 29 30 31 30 28 28 26 25 23 22 21 20 19 18 17 17 17 17 16 16 16 13 10 8 7 6 4 3 -0 -3 -2 -3 -3 -4 -7 -7 -9 -6 -12 -14 -12
21 22 22 21 21 20 19 18 17 17 17 17 17 19 24 26 25 23 23 26 27 27 26 24 24 24 24 26 27 26 26 27 30 31 30 30 29 28 28 27 28 28 30 31 30 29 27 25 25 24 24 23 21 20 19 18 17 16 15 17 14 14 14 13 12 9 8 8 7 5 3 1 -1 -3 -4 -3 -7 -8 -6 -0 -11 -11 -11 -14 -14
22 23 22 22 22 21 20 19 17 16 17 18 18 19 21 24 29 28 28 28 27 27 27 27 26 26 26 25 27 29 29 31 31 32 31 30 30 29 29 29 29 30 31 30 28 26 25 24 23 23 22 22 21 20 18 17 16 15 14 13 12 13 11 10 8 6 6 4 3 2 1 0 -2 -4 -4 -7 -6 -9 -12 -11 -12 -13 -13 -13 -14
22 23 23 22 22 22 21 20 20 19 18 18 19 19 21 24 24 28 28 28 28 27 28 27 27 27 28 28 28 29 31 32 32 31 31 31 30 30 30 30 30 31 31 30 25 25 24 23 22 21 21 20 20 18 17 16 15 14 13 11 11 10 9 7 4 5 3 2 1 -2 -2 -4 -4 -8 -9 -8 -7 -11 -10 -11 -13 -13 -13 -14 -14
21 22 23 23 23 23 23 21 21 21 22 22 21 21 21 24 24 24 27 29 29 28 28 29 28 28 28 29 29 29 31 31 31 31 31 31 31 30 30 30 30 31 31 26 24 23 23 22 21 20 20 19 18 17 16 15 14 13 13 12 10 7 4 4 5 3 1 1 -1 -3 -6 -8 -9 -8 -8 -8 -9 -11 -12 -12 -15 -12 -13 -14 -13
19 22 23 24 24 24 24 23 22 23 23 24 24 24 25 25 25 25 25 25 26 28 29 29 29 28 28 29 29 30 31 31 31 31 31 30 30 30 30 29 30 31 28 24 23 22 21 21 20 19 18 16 16 16 15 14 13 12 10 8 5 2 0 0 1 -1 -2 0 -3 -7 -9 -10 -9 -8 -11 -12 -12 -14 -13 -12 -16 -15 -16 -15 -15
19 20 22 23 25 26 26 25 24 23 24 24 24 24 24 24 25 25 24 24 24 24 24 26 28 28 28 28 29 30 31 32 31 30 30 30 30 30 30 29 28 27 22 18 21 21 19 19 18 17 15 15 15 15 14 12 11 10 8 4 -0 -2 -2 -1 -4 -3 -4 -7 -8 -9 -9 -9 -10 -10 -8 -11 -12 -13 -13 -14 -16 -15 -15 -18 -17
20 21 22 23 25 25 26 26 25 25 24 24 24 24 24 24 24 23 22 22 23 23 24 25 26 27 27 28 29 30 31 31 31 30 30 30 30 30 27 26 25 23 18 15 14 13 14 14 14 13 13 11 12 12 11 10 9 6 3 1 -0 -2 -3 -4 -6 -6 -8 -6 -9 -9 -8 -12 -11 -12 -15 -14 -11 -10 -14 -13 -14 -14 -15 -16 -16
18 19 21 23 25 25 26 26 25 25 25 24 23 23 23 23 23 23 23 23 23 23 23 24 26 26 27 26 28 30 31 31 30 30 30 30 30 29 26 26 25 22 17 12 11 11 12 8 9 10 9 9 8 8 6 5 3 1 3 -0 -2 -3 -3 -4 -6 -6 -8 -12 -12 -8 -11 -11 -12 -13 -10 -10 -13 -13 -16 -16 -15 -13 -12 -12 -8
16 18 20 22 24 25 26 26 25 25 24 24 23 23 22 22 22 22 22 22 22 22 23 24 25 24 24 24 28 29 30 31 31 30 30 30 29 25 23 22 22 21 16 12 11 11 8 5 7 10 6 7 5 4 4 1 1 1 -2 -4 -5 -6 -1 -2 -3 -8 -10 -11 -12 -12 -12 -13 -12 -13 -12 -10 -11 -14 -15 -14 -15 -14 -10 -8 -9
14 17 20 21 23 24 25 25 25 24 24 23 23 22 22 22 21 21 22 21 22 22 22 22 22 22 23 24 26 28 29 28 28 26 22 15 15 18 19 19 17 14 12 10 8 7 7 5 2 3 4 4 3 2 2 -0 -1 -2 -4 -5 -6 -7 -3 -9 -8 -10 -10 -11 -13 -14 -12 -12 -15 -14 -12 -12 -14 -14 -14 -14 -13 -12 -11 -11 -10
12 14 17 20 22 24 25 25 25 24 24 23 23 23 22 22 21 21 20 21 21 21 21 21 20 19 19 22 24 26 25 24 20 17 15 12 11 13 15 15 13 12 10 8 7 5 4 2 1 2 0 -1 1 -0 -2 -2 -3 -4 -5 -5 -5 -6 -6 -6 -7 -9 -9 -11 -13 -14 -12 -12 -14 -15 -15 -14 -13 -15 -15 -13 -11 -11 -11 -11 -11
11 13 15 18 20 22 23 24 24 23 23 22 22 22 21 21 20 20 20 20 20 20 19 18 16 17 20 22 25 23 19 15 13 11 10 10 10 10 9 10 10 9 8 7 5 4 3 1 -1 -0 -3 -5 -6 -5 -6 -6 -7 -6 -6 -6 -7 -5 -7 -10 -10 -11 -12 -12 -12 -14 -14 -15 -15 -14 -12 -12 -8 -10 -13 -12 -11 -10 -10 -10 -11
11 12 14 16 19 21 22 22 22 21 22 21 22 21 20 20 20 20 19 19 18 17 16 15 16 18 21 23 22 19 12 10 8 7 7 7 6 4 3 2 3 7 7 6 5 3 1 1 -0 -2 -4 -7 -8 -10 -10 -9 -7 -6 -6 -6 -6 -8 -9 -9 -10 -12 -12 -13 -14 -13 -16 -14 -14 -13 -11 -5 -12 -11 -12 -12 -11 -10 -11 -10 -11
9 10 12 14 17 19 21 22 22 22 21 21 20 18 18 19 19 18 18 18 17 15 15 15 16 16 18 20 18 15 11 10 6 7 5 3 1 -1 -2 -5 -8 -7 -6 -6 -7 -4 -3 -4 -7 -7 -6 -7 -8 -6 -5 -5 -5 -6 -8 -8 -7 -8 -9 -12 -14 -13 -15 -15 -14 -15 -15 -14 -10 -13 -12 -10 -11 -11 -10 -10 -10 -10 -10 -10 -11
7 9 11 13 15 17 18 21 21 20 21 19 18 17 17 18 18 18 17 16 14 14 15 15 14 12 12 12 11 10 9 8 7 6 3 -0 -2 -5 -7 -9 -10 -10 -11 -11 -12 -10 -9 -10 -12 -15 -15 -14 -13 -12 -10 -8 -7 -6 -6 -7 -9 -10 -11 -12 -12 -13 -13 -13 -13 -13 -13 -13 -12 -11 -11 -10 -10 -11 -10 -10 -10 -10 -10 -10 -11
6 7 10 12 14 16 18 19 19 19 16 15 16 16 15 17 17 17 16 14 13 13 14 13 11 10 9 9 8 7 6 4 -0 -2 -2 -3 -6 -8 -10 -10 -10 -11 -13 -15 -16 -14 -12 -11 -12 -13 -15 -16 -15 -13 -13 -13 -13 -11 -9 -8 -8 -8 -10 -11 -11 -12 -11 -12 -11 -12 -12 -12 -12 -11 -10 -9 -9 -9 -9 -9 -10 -9 -10 -10 -11
6 8 10 12 14 14 16 17 15 16 16 16 16 15 15 16 16 15 14 13 13 13 12 11 10 9 7 6 5 3 1 -1 -3 -6 -7 -8 -8 -10 -11 -13 -13 -13 -14 -15 -16 -16 -14 -12 -11 -11 -12 -13 -14 -15 -15 -15 -14 -14 -14 -14 -11 -11 -13 -14 -14 -13 -12 -12 -10 -10 -11 -11 -11 -10 -9 -9 -9 -9 -9 -9 -10 -10 -10 -10 -11
7 9 11 12 13 13 14 13 14 14 15 15 14 14 14 15 15 12 10 11 11 11 11 10 9 8 6 5 4 2 -2 -3 -5 -6 -7 -7 -9 -10 -12 -13 -13 -14 -16 -17 -17 -15 -15 -14 -14 -13 -14 -15 -14 -15 -16 -17 -17 -16 -14 -14 -13 -13 -15 -14 -11 -11 -11 -11 -10 -10 -10 -10 -9 -9 -9 -9 -9 -10 -10 -10 -10 -11 -12 -12 -13
8 9 10 11 12 12 12 12 12 10 12 12 12 11 11 11 11 10 10 9 10 10 9 9 8 7 5 4 2 0 -2 -4 -6 -8 -8 -8 -9 -11 -11 -11 -11 -12 -13 -13 -14 -14 -15 -15 -14 -14 -14 -15 -15 -16 -18 -19 -19 -17 -16 -16 -15 -14 -12 -11 -14 -14 -13 -12 -11 -10 -10 -9 -9 -9 -10 -10 -10 -11 -12 -13 -13 -14 -14 -14 -14
8 8 9 10 10 10 10 11 9 10 10 9 7 7 7 8 7 8 7 8 8 8 8 7 6 6 4 2 1 -1 -3 -6 -6 -7 -8 -8 -9 -10 -10 -11 -12 -12 -11 -12 -14 -14 -15 -16 -16 -16 -16 -17 -17 -17 -18 -17 -16 -16 -16 -16 -14 -9 -8 -9 -11 -12 -9 -11 -12 -12 -13 -12 -11 -11 -11 -12 -12 -14 -14 -16 -17 -15 -15 -15 -16
6 6 7 7 7 7 7 8 8 8 7 7 7 5 5 5 5 5 5 5 6 6 6 5 1 3 2 0 -1 -1 -2 -4 -5 -6 -7 -8 -9 -10 -10 -11 -11 -12 -11 -13 -14 -16 -19 -20 -20 -19 -19 -20 -19 -19 -18 -17 -17 -16 -16 -15 -5 -4 -5 -7 -8 -8 -10 -15 -14 -15 -14 -15 -17 -16 -16 -16 -16 -17 -17 -16 -16 -15 -16 -17 -17
3 4 4 4 4 4 5 5 5 6 6 6 5 4 4 4 3 3 4 4 1 1 1 2 2 1 1 1 -0 -1 -2 -3 -6 -7 -7 -8 -9 -10 -10 -11 -12 -13 -15 -15 -16 -17 -19 -20 -19 -18 -18 -16 -17 -17 -18 -17 -17 -16 -10 -6 -5 -3 -4 -5 -9 -7 -9 -12 -18 -18 -17 -17 -18 -17 -18 -19 -19 -19 -17 -17 -18 -18 -18 -18 -18